Location: Wien
(48.2082°N, 16.3738°E)
Time: 13:20:48
(UTC+01:00)

BlueWalker 3 - Visible Passes

Search period start: 05 December 2023 00:00
Search period end: 15 December 2023 00:00
Orbit: 489 x 503 km, 53.2° (Epoch: 04 December)

Date Brightness Start Highest point End Pass type
(mag) Time Alt. Az. Time Alt. Az. Time Alt. Az.
05 Dec 3.6 05:32:43 20° SW 05:32:43 20° SW 05:35:06 10° S visible
06 Dec 4.1 05:11:21 15° S 05:11:21 15° S 05:12:27 10° S visible
14 Dec 4.7 19:07:05 10° SW 19:07:43 14° SW 19:07:43 14° SW visible
